Location: Unspecified
(0.0000°N, 0.0000°E)
Time: 22:38:03
(UTC+00:00)

Hubble Space Telescope - Pass Details

Date: 15 February 2020
Orbit: 536 x 540 km, 28.5° (Epoch: 25 February)

Event Time Altitude Azimuth Distance (km) Brightness Sun altitude
Exits shadow 04:31:10 18° 25° (NNE) 1,326 2.8 -25.1°
Maximum altitude 04:31:21 18° 29° (NNE) 1,324 2.9 -25.0°
Drops below altitude 10° 04:34:15 10° 74° (ENE) 1,775 4.2 -24.3°
Sets 04:37:02 0° 92° (E) 2,667 5.7 -23.6°
